Location: *
(57.6680°S, 48.3040°W)
Time: 06:15:43
(UTC+00:00)

Daily predictions for brighter satellites

Satellite Brightness Start Highest point End
(mag) Time Altitude Azimuth Time Altitude Azimuth Time Altitude Azimuth
ADEOS II 2.8 20:07:29 10° SSE 20:12:45 57° WSW 20:17:57 10° NW
Cosmos 1455 2.4 20:10:01 10° S 20:13:58 55° ESE 20:17:51 10° NNE
GEOS 3 Rocket 3.8 20:09:07 10° SE 20:14:24 78° SSW 20:19:34 10° WNW
Okean-O 2.7 20:11:14 10° SSE 20:15:48 71° ENE 20:20:17 10° N
Cosmos 1726 4.0 20:13:29 10° SSW 20:17:00 36° W 20:20:28 10° NNW
ATLAS CENTAUR R/B 1.9 20:12:20 10° SW 20:17:10 86° NW 20:22:07 10° NE
Cosmos 1356 Rocket 3.6 20:17:32 10° NNW 20:21:54 89° WSW 20:26:21 10° SSE
Cosmos 2251 Rocket 3.8 20:16:39 10° NW 20:22:00 75° WSW 20:27:23 10° SSE
Aureole 2 Rocket 3.8 20:19:50 10° SSW 20:23:13 25° SE 20:26:22 10° E
Lacrosse 5 rocket 1.1 20:21:20 10° W 20:25:04 82° N 20:28:54 10° E
Okean O Rocket 3.2 20:26:18 10° S 20:30:24 36° WSW 20:34:30 10° NW
Cosmos 1634 Rocket 4.1 20:25:15 10° S 20:31:25 54° ESE 20:37:34 10° NNE
USA 215 3.4 20:25:10 10° E 20:31:50 86° N 20:38:31 10° W
CSL-04 Rocket 4.4 20:28:41 10° SSE 20:33:37 33° E 20:38:33 10° NNE
GP-B 3.1 20:30:22 10° S 20:34:57 77° E 20:39:28 10° N
Cosmos 1184 Rocket 4.4 20:31:51 10° NW 20:35:07 39° WSW 20:38:26 10° S
NOSS 0 Rocket 4.0 20:30:29 10° SW 20:36:50 74° SE 20:43:07 10° NE
Cosmos 1340 Rocket 4.4 20:33:53 10° NW 20:37:45 38° WSW 20:41:41 10° S
Cosmos 2360 Rocket 3.7 20:34:01 10° SW 20:39:20 42° WNW 20:44:37 10° N
Tsikada Rocket 4.2 20:33:12 10° NNE 20:39:24 56° E 20:45:35 10° SSE
Sich 1 3.8 20:36:54 10° NNE 20:40:43 31° E 20:44:36 10° SSE
Meteor 1-31 Rocket 3.5 20:37:08 10° S 20:41:03 58° WSW 20:44:52 10° NNW
Cosmos 1500 Rocket 3.8 20:37:00 10° NNW 20:41:32 77° WSW 20:46:07 10° S
ATLAS 5 CENTAUR R/B 2.1 20:39:38 10° WSW 20:42:49 40° NW 20:44:38 10° NNE
Cosmos 1833 Rocket 3.9 20:37:46 10° WNW 20:43:05 38° SW 20:48:24 10° SSE
Cosmos 1933 4.1 20:40:48 10° S 20:44:38 32° ESE 20:48:25 10° NE
Cosmos 1805 Rocket 3.7 20:46:53 10° N 20:51:10 52° E 20:55:30 10° SSE
COSMOS 2428 3.4 20:46:05 10° SW 20:51:47 62° WNW 20:57:25 10° NNE
Cosmos 1980 3.7 20:48:08 10° SW 20:53:54 73° SE 20:59:37 10° NE
Cosmos 2082 Rocket 3.5 20:48:55 10° W 20:54:04 34° SSW 20:59:16 10° SE
IDEFIX/ARIANE 42P 2.9 20:53:13 10° SSE 20:58:20 45° E 21:03:22 10° N
SL-16 R/B 2.5 20:55:29 10° SW 21:01:02 47° SE 21:06:16 11° ENE
Meteor 1-29 4.2 21:01:51 19° E 21:03:06 23° ESE 21:05:53 10° S
RESURS DK-1 4.5 21:01:22 10° SW 21:04:01 16° S 21:06:28 11° SE
Cosmos 2279 Rocket 4.1 20:58:08 10° S 21:04:25 56° ESE 21:10:38 10° NNE
Cosmos 1833 4.3 20:59:52 10° NNW 21:05:39 66° ENE 21:11:28 10° SE
SL-24 R/B - RUBIN 2 3.9 21:02:16 10° NNW 21:06:22 47° NE 21:09:24 18° ESE
CSL-04 Debris 4.4 21:01:20 10° SSE 21:06:41 49° E 21:11:57 10° N
Cosmos 1356 3.9 21:04:56 10° NNE 21:08:17 39° E 21:11:41 10° SSE
SMAP 3.6 21:06:02 10° SSE 21:10:25 35° E 21:14:45 10° NNE
Meteor 2-10 Rocket 3.8 21:05:33 10° S 21:10:57 54° ESE 21:16:31 10° NE
Cosmos 1470 Rocket 4.3 21:08:25 10° NNE 21:12:21 31° E 21:16:20 10° SSE
Cosmos 2242 Rocket 3.7 21:09:47 10° SSW 21:14:30 85° ESE 21:19:10 10° NNE
Cosmos 2297 Rocket 4.0 21:12:09 10° NE 21:13:10 12° ENE 21:13:10 12° ENE
Cosmos 841 Rocket 4.5 21:11:24 10° SSW 21:15:59 29° SE 21:18:18 21° ESE
Cosmos 1626 2.5 21:13:27 10° NNW 21:17:14 70° WSW 21:21:05 10° S
Cosmos 1703 3.7 21:14:07 10° NNW 21:18:10 67° WSW 21:22:16 10° S
Cosmos 2237 Rocket 2.2 21:14:24 10° SW 21:20:11 89° WNW 21:25:56 10° NNE
Cosmos 2221 Rocket 4.5 21:16:22 10° S 21:20:22 29° ESE 21:22:04 23° E
Helios 1B rocket 2.7 21:17:47 10° NE 21:21:50 48° ESE 21:25:56 10° S
Cosmos 2058 3.9 21:17:47 10° NNW 21:21:57 50° WSW 21:26:12 10° S
Cosmos 676 Rocket 4.3 21:21:27 10° N 21:26:24 45° ENE 21:30:45 13° SE
ERS-2 3.8 21:23:51 10° S 21:27:22 35° WSW 21:30:49 10° NW
Cosmos 1954 Rocket 4.4 21:22:48 10° N 21:27:37 39° ENE 21:31:17 16° SE
YAOGAN 1 3.1 21:23:56 10° SSE 21:28:04 37° E 21:32:10 10° NNE
Cosmos 1869 4.3 21:24:46 10° SSW 21:28:45 51° W 21:32:39 10° N
Cosmos 2151 4.5 21:25:58 10° NW 21:30:05 39° WSW 21:34:16 10° S
Cosmos 2333 Rocket 2.7 21:24:49 10° SW 21:30:29 63° WNW 21:36:07 10° NNE
CZ-2C R/B 2.4 21:26:32 10° SSE 21:31:35 71° ENE 21:36:44 10° N
Cosmos 2219 3.4 21:27:00 10° N 21:32:33 50° ENE 21:37:01 16° SE
Cosmos 1190 Rocket 3.9 21:29:16 10° NNW 21:34:29 73° ENE 21:39:46 10° SSE
Ariane Rocket 3.0 21:30:06 10° SSE 21:35:20 87° ENE 21:40:29 10° NNW
CZ-4 R/B 1.4 21:32:31 10° SSE 21:36:41 57° ENE 21:40:43 10° N
SJ-12 3.9 21:33:06 10° SSE 21:37:20 76° ENE 21:41:33 10° N
COSMOS 2441 4.5 21:33:10 10° SSE 21:38:04 56° E 21:42:56 10° N
Cosmos 1633 Rocket 3.0 21:34:09 10° N 21:38:35 81° E 21:43:04 10° SSE
Cosmos 1818 4.4 21:35:10 10° WSW 21:40:15 39° S 21:42:56 24° SE
Cosmos 2219 Rocket 3.2 21:35:09 10° SW 21:40:35 48° WNW 21:45:58 10° N
Cosmos 407 Rocket 3.4 21:36:08 10° NNW 21:41:21 73° ENE 21:46:31 11° SSE
Cosmos 2180 Rocket 4.5 21:35:23 10° S 21:41:52 78° ESE 21:48:20 10° NNE
Cosmos 2346 Rocket 4.4 21:36:20 10° N 21:42:29 88° E 21:48:41 10° SSE
Okean 1-7 3.5 21:40:11 10° S 21:44:20 38° ESE 21:45:00 36° E
ISS -1.1 21:44:39 10° NNE 21:44:47 10° NNE 21:44:47 10° NNE
Cosmos 2227 Rocket 3.1 21:42:25 10° NNE 21:46:40 27° ENE 21:46:40 27° ENE
ATLAS 2AS CENTAUR R/B 3.1 21:42:37 10° WSW 21:48:32 54° NW 21:54:43 10° NNE
NOSS 3-4 (A) 3.8 21:41:46 10° WSW 21:49:20 73° SSE 21:53:23 28° ENE
NOSS 3-4 (C) 3.8 21:41:51 10° WSW 21:49:25 73° SSE 21:53:28 28° ENE
PAYLOAD A 4.2 21:46:29 10° SSE 21:51:17 66° WSW 21:56:10 10° NNW
Cosmos 1943 4.1 21:46:07 10° SW 21:51:20 33° SSE 21:53:00 28° ESE
Cosmos 1570 Rocket 4.4 21:46:11 10° SSW 21:51:30 68° WNW 21:56:43 10° NNE
GEOS 3 Rocket 4.4 21:49:02 21° SE 21:52:07 43° SSW 21:57:02 10° W
ATLAS CENTAUR R/B 4.0 21:51:51 10° WSW 21:55:47 25° WNW 21:59:45 10° N
MOS 1 4.4 21:50:17 10° SSE 21:55:59 54° ENE 22:01:37 10° N
Cosmos 1484 Rocket 2.7 21:56:00 41° SE 21:57:03 58° ENE 22:00:48 10° N
SPOT 3 Rocket 3.7 21:53:37 10° SSE 21:58:50 53° ENE 22:03:58 10° N
Aureole 2 Rocket 3.0 21:55:02 10° SW 21:58:56 62° WNW 22:01:09 22° N
Cosmos 1862 Rocket 4.1 21:55:30 10° SSW 21:59:54 60° W 22:04:17 10° N
Lacrosse 5 rocket 1.8 22:00:28 10° W 22:04:05 47° NNW 22:05:01 38° NNE
Cosmos 1666 Rocket 4.4 22:03:35 10° NNW 22:08:02 52° WSW 22:12:30 10° S
Cosmos 1763 Rocket 3.5 22:05:22 10° SSW 22:10:29 58° SE 22:11:33 48° E
Cosmos 1741 Rocket 4.4 22:08:06 10° N 22:12:36 42° NE 22:12:36 42° NE
CSL-04 Rocket 4.2 22:08:54 10° SSE 22:14:16 59° WSW 22:19:39 10° NW
USA 215 3.4 22:11:47 32° ENE 22:15:06 72° NNW 22:21:45 10° WSW
IRS-1A Rocket 4.3 22:10:22 10° SSE 22:16:08 82° WSW 22:21:44 10° NNW
Geosat 3.9 22:16:25 44° NE 22:18:03 79° SE 22:23:11 10° SW
Cosmos 1933 Rocket 3.5 22:13:37 10° NNW 22:18:05 88° W 22:22:33 10° SSE
Sich 1 4.2 22:14:10 10° NW 22:18:20 43° WSW 22:22:32 10° S
Cosmos 371 Rocket 3.3 22:13:43 10° SSW 22:18:37 61° SE 22:19:07 57° E
Cosmos 1140 Rocket 3.3 22:13:37 10° NNW 22:18:46 70° ENE 22:20:46 38° SE
Cosmos 1603 3.7 22:14:35 10° SW 22:20:14 59° SE 22:21:21 50° E
Meteor 2-3 Rocket 3.8 22:14:56 10° N 22:20:36 53° E 22:26:17 10° SSE
Cosmos 1703 Rocket 3.6 22:16:29 10° SSW 22:21:06 83° WNW 22:23:42 26° N
Cosmos 1850 Rocket 4.1 22:17:23 10° N 22:22:16 52° ENE 22:22:16 52° ENE
CZ-4 R/B 4.5 22:23:33 10° SSE 22:27:50 83° WSW 22:32:05 10° NNW
MSX 4.1 22:24:00 10° SSE 22:29:52 70° WSW 22:35:40 10° NNW
Cosmos 540 Rocket 4.1 22:27:26 10° SSW 22:31:57 41° SE 22:31:57 41° SE
In-Cosmos 22 Rocket 4.1 22:28:13 10° N 22:33:53 85° ENE 22:39:47 10° SSE
Meteor 1-27 Rocket 3.9 22:28:28 10° S 22:34:24 54° ESE 22:34:42 54° ESE
Meteor 1-29 3.9 22:35:39 46° WNW 22:35:46 46° W 22:39:08 10° SSW
Cosmos 1782 3.9 22:32:17 10° S 22:34:52 36° S 22:34:52 36° S
IDEFIX/ARIANE 42P 3.8 22:32:57 10° S 22:37:58 43° WSW 22:42:55 10° NW
Cosmos 1814 Rocket 4.0 22:34:18 10° SSW 22:39:41 79° WNW 22:41:01 51° NNE
Cosmos 2082 Rocket 4.0 22:35:28 10° SW 22:39:52 22° S 22:42:05 18° SSE
Cosmos 332 Rocket 3.8 22:35:47 10° SSW 22:40:49 84° WNW 22:41:23 70° NNE
RESURS DK-1 4.3 22:40:00 10° SSW 22:42:23 22° S 22:42:23 22° S
SL-16 R/B 2.8 22:39:46 10° SW 22:45:21 55° WNW 22:48:12 28° N
Nimbus 7 Rocket 4.4 22:44:28 59° ENE 22:45:32 71° ESE 22:51:40 10° SSW
SMAP 4.1 22:43:21 10° S 22:47:55 46° WSW 22:52:25 10° NW
SL-24 R/B - RUBIN 2 4.1 22:45:53 10° WNW 22:50:08 54° SSW 22:50:16 53° SSW
Cosmos 2285 Rocket 4.0 22:44:37 10° SSW 22:51:10 83° WNW 22:53:13 47° NNE
Molniya-1T 4.1 22:37:51 10° NW 22:51:36 78° NNE 22:51:52 75° ENE
Nadezhda 4 Rocket 3.9 22:49:57 10° N 22:56:20 87° E 23:02:42 10° SSE
Helios 1B rocket 4.4 22:53:39 10° NNW 22:57:20 29° W 23:01:05 10° SSW
Cosmos 2297 Rocket 3.4 22:52:21 10° NNW 22:55:04 29° N 22:55:04 29° N
Cosmos 841 Rocket 3.4 22:53:13 10° SSW 22:58:24 84° WSW 22:58:24 84° WSW
Cosmos 2221 Rocket 4.3 22:54:24 10° SSW 22:58:51 52° W 22:59:34 47° NW
Meteor 1-10 Rocket 4.4 22:53:07 10° SSW 22:59:03 79° WNW 23:00:46 49° N
Cosmos 2237 Rocket 4.3 22:59:10 10° SW 23:03:36 23° WNW 23:08:00 10° NNW
YAOGAN 1 3.9 23:00:05 10° S 23:04:14 40° WSW 23:08:21 10° NW
COSMOS 2406 4.4 23:00:31 10° SW 23:05:15 30° SSE 23:05:15 30° SSE
CZ-2C R/B 4.4 23:05:17 10° S 23:09:30 28° SW 23:13:49 10° WNW
CZ-4 R/B 3.6 23:07:58 10° S 23:11:28 26° WSW 23:14:53 10° WNW
Cosmos 1092 Rocket 3.8 23:06:46 10° N 23:13:13 84° ESE 23:19:23 10° SSE
Cosmos 1553 Rocket 4.1 23:07:59 10° S 23:13:57 68° SE 23:13:57 68° SE
Cosmos 2219 4.0 23:11:11 10° WNW 23:16:49 51° SW 23:18:57 34° SSE
Cosmos 614 Rocket 4.3 23:11:57 10° NW 23:16:55 62° WSW 23:16:55 62° WSW
Okean 1-7 4.5 23:17:53 10° SSW 23:21:54 36° W 23:21:54 36° W
Cosmos 1818 4.2 23:19:17 10° SW 23:23:34 49° SSW 23:23:34 49° SSW
Cosmos 2227 Rocket 3.1 23:24:57 10° NW 23:28:33 41° NW 23:28:33 41° NW
Cosmos 1943 3.7 23:30:18 10° SW 23:34:50 57° SW 23:34:50 57° SW
NOSS 3-4 (A) 4.1 23:33:08 10° SW 23:40:15 53° NW 23:40:50 52° NNW
NOSS 3-4 (C) 4.1 23:33:13 10° SW 23:40:21 54° NW 23:40:55 52° NNW
Lacrosse 5 rocket 4.2 23:40:17 10° W 23:40:44 12° WNW 23:40:44 12° WNW
S3M 4.4 23:41:40 10° SSW 23:46:39 58° SSW 23:46:39 58° SSW
